| time (UTC) | temp F | wind direction | speed knots | gust knots | rain 1hr in | rain 24hr in | rain mn in | humidity % | barometer mb |
| 20260506123753 | 85 | 0.0 | 0.0 | 0.00 | 0.00 | 0.00 | 10 | -208.0 | |
| 20260506122753 | 84 | 0.0 | 0.0 | 0.00 | 0.00 | 0.00 | 10 | -207.9 | |
| 20260506121753 | 80 | 0.0 | 0.0 | 0.00 | 0.00 | 0.00 | 10 | -207.3 | |
| 20260506120753 | 82 | 0.0 | 0.0 | 0.00 | 0.00 | 0.00 | 10 | -207.6 | |
| 20260506115753 | 80 | 0.0 | 0.0 | 0.00 | 0.00 | 0.00 | 10 | -207.3 | |
| 20260506114753 | 81 | 0.0 | 0.0 | 0.00 | 0.00 | 0.00 | 10 | -207.5 | |
| 20260506113753 | 82 | 0.0 | 0.0 | 0.00 | 0.00 | 0.00 | 10 | -207.6 | |
| 20260506112753 | 77 | 0.0 | 0.0 | 0.00 | 0.00 | 0.00 | 10 | -206.7 | |
| 20260506111753 | 76 | 0.0 | 0.0 | 0.00 | 0.00 | 0.00 | 10 | -206.7 | |
| 20260506110752 | 80 | 0.0 | 0.0 | 0.00 | 0.00 | 0.00 | 10 | -207.2 | |
| 20260506105752 | 82 | 0.0 | 0.0 | 0.00 | 0.00 | 0.00 | 10 | -207.5 | |
| 20260506104752 | 81 | 0.0 | 0.0 | 0.00 | 0.00 | 0.00 | 10 | -207.5 | |
| 20260506103752 | 79 | 0.0 | 0.0 | 0.00 | 0.00 | 0.00 | 10 | -207.1 | |
| 20260506102752 | 79 | 0.0 | 0.0 | 0.00 | 0.00 | 0.00 | 10 | -207.1 | |
| 20260506101752 | 78 | 0.0 | 0.0 | 0.00 | 0.00 | 0.00 | 10 | -207.0 | |
| 20260506100752 | 77 | 0.0 | 0.0 | 0.00 | 0.00 | 0.00 | 10 | -206.7 | |
| 20260506095752 | 75 | 0.0 | 0.0 | 0.00 | 0.00 | 0.00 | 10 | -206.4 | |
| 20260506094752 | 75 | 0.0 | 0.0 | 0.00 | 0.00 | 0.00 | 10 | -206.5 | |
| 20260506093752 | 77 | 0.0 | 0.0 | 0.00 | 0.00 | 0.00 | 10 | -206.8 | |
| 20260506092752 | 77 | 0.0 | 0.0 | 0.00 | 0.00 | 0.00 | 10 | -206.8 | |
| 20260506091752 | 78 | 0.0 | 0.0 | 0.00 | 0.00 | 0.00 | 10 | -206.9 | |
| 20260506090752 | 76 | 0.0 | 0.0 | 0.00 | 0.00 | 0.00 | 10 | -206.7 | |
| 20260506085752 | 73 | 0.0 | 0.0 | 0.00 | 0.00 | 0.00 | 10 | -206.1 | |
| 20260506084752 | 73 | 0.0 | 0.0 | 0.00 | 0.00 | 0.00 | 10 | -206.1 | |
| 20260506083752 | 70 | 0.0 | 0.0 | 0.00 | 0.00 | 0.00 | 10 | -205.7 | |
| 20260506082752 | 70 | 0.0 | 0.0 | 0.00 | 0.00 | 0.00 | 10 | -205.7 | |
| 20260506081752 | 69 | 0.0 | 0.0 | 0.00 | 0.00 | 0.00 | 10 | -205.5 | |
| 20260506080752 | 69 | 0.0 | 0.0 | 0.00 | 0.00 | 0.00 | 10 | -205.5 | |
| 20260506072753 | 67 | 0.0 | 0.0 | 0.00 | 0.00 | 0.00 | 10 | -205.1 | |
| 20260506071752 | 66 | 0.0 | 0.0 | 0.00 | 0.00 | 0.00 | 10 | -205.1 | |
| 20260506070752 | 65 | 0.0 | 0.0 | 0.00 | 0.00 | 0.00 | 10 | -204.8 | |
| 20260506061752 | 61 | 0.0 | 0.0 | 0.00 | 0.00 | 0.00 | 10 | -204.2 | |
| 20260506050752 | 54 | 0.0 | 0.0 | 0.00 | 0.00 | 0.00 | 10 | -203.2 | |
| 20260506044752 | 53 | 0.0 | 0.0 | 0.00 | 0.00 | 0.00 | 10 | -203.0 | |
| 20260506043752 | 53 | 0.0 | 0.0 | 0.00 | 0.00 | 0.00 | 10 | -202.9 | |
| 20260506042752 | 53 | 0.0 | 0.0 | 0.00 | 0.00 | 0.00 | 10 | -203.0 | |
| 20260506041752 | 53 | 0.0 | 0.0 | 0.00 | 0.00 | 0.00 | 10 | -203.0 | |
| 20260506040752 | 52 | 0.0 | 0.0 | 0.00 | 0.00 | 0.00 | 10 | -202.9 | |
| 20260506035751 | 52 | 0.0 | 0.0 | 0.00 | 0.00 | 0.00 | 10 | -202.8 | |
| 20260506034751 | 52 | 0.0 | 0.0 | 0.00 | 0.00 | 0.00 | 10 | -202.7 | |
| 20260506033751 | 51 | 0.0 | 0.0 | 0.00 | 0.00 | 0.00 | 10 | -202.7 | |
| 20260506032751 | 51 | 0.0 | 0.0 | 0.00 | 0.00 | 0.00 | 10 | -202.6 | |
| 20260506031751 | 51 | 0.0 | 0.0 | 0.00 | 0.00 | 0.00 | 10 | -202.6 | |
| 20260506030751 | 51 | 0.0 | 0.0 | 0.00 | 0.00 | 0.00 | 10 | -202.6 | |
| 20260506025751 | 51 | 0.0 | 0.0 | 0.00 | 0.00 | 0.00 | 10 | -202.6 | |
| 20260506024751 | 51 | 0.0 | 0.0 | 0.00 | 0.00 | 0.00 | 10 | -202.7 | |
| 20260506023751 | 51 | 0.0 | 0.0 | 0.00 | 0.00 | 0.00 | 10 | -202.6 | |
| 20260506022751 | 51 | 0.0 | 0.0 | 0.00 | 0.00 | 0.00 | 10 | -202.6 | |
| 20260506021751 | 50 | 0.0 | 0.0 | 0.00 | 0.00 | 0.00 | 10 | -202.5 | |
| 20260506020751 | 49 | 0.0 | 0.0 | 0.00 | 0.00 | 0.00 | 10 | -202.4 | |
| 20260506015751 | 51 | 0.0 | 0.0 | 0.00 | 0.00 | 0.00 | 10 | -202.6 | |
| 20260506014751 | 51 | 0.0 | 0.0 | 0.00 | 0.00 | 0.00 | 10 | -202.6 | |
| 20260506013751 | 51 | 0.0 | 0.0 | 0.00 | 0.00 | 0.00 | 10 | -202.6 | |
| 20260506012751 | 50 | 0.0 | 0.0 | 0.00 | 0.00 | 0.00 | 10 | -202.5 | |
| 20260506011751 | 51 | 0.0 | 0.0 | 0.00 | 0.00 | 0.00 | 10 | -202.7 | |
| 20260506010751 | 50 | 0.0 | 0.0 | 0.00 | 0.00 | 0.00 | 10 | -202.6 | |
| 20260506005751 | 51 | 0.0 | 0.0 | 0.00 | 0.00 | 0.00 | 10 | -202.7 | |
| 20260506004751 | 51 | 0.0 | 0.0 | 0.00 | 0.00 | 0.00 | 10 | -202.7 | |
| 20260506003751 | 52 | 0.0 | 0.0 | 0.00 | 0.00 | 0.00 | 10 | -202.7 | |
| 20260506002751 | 52 | 0.0 | 0.0 | 0.00 | 0.00 | 0.00 | 10 | -202.8 | |
| 20260506001751 | 52 | 0.0 | 0.0 | 0.00 | 0.00 | 0.00 | 10 | -202.8 | |
| 20260506000751 | 51 | 0.0 | 0.0 | 0.00 | 0.00 | 0.00 | 10 | -202.6 | |
| 20260505235751 | 52 | 0.0 | 0.0 | 0.00 | 0.00 | 0.00 | 10 | -202.8 | |
| 20260505234751 | 52 | 0.0 | 0.0 | 0.00 | 0.00 | 0.00 | 10 | -202.9 | |
| 20260505233751 | 53 | 0.0 | 0.0 | 0.00 | 0.00 | 0.00 | 10 | -203.0 | |
| 20260505232751 | 53 | 0.0 | 0.0 | 0.00 | 0.00 | 0.00 | 10 | -203.0 | |
| 20260505231751 | 53 | 0.0 | 0.0 | 0.00 | 0.00 | 0.00 | 10 | -203.0 | |
| 20260505230751 | 52 | 0.0 | 0.0 | 0.00 | 0.00 | 0.00 | 10 | -202.8 | |
| 20260505225751 | 53 | 0.0 | 0.0 | 0.00 | 0.00 | 0.00 | 10 | -203.0 | |
| 20260505224751 | 53 | 0.0 | 0.0 | 0.00 | 0.00 | 0.00 | 10 | -203.0 | |
| 20260505223751 | 54 | 0.0 | 0.0 | 0.00 | 0.00 | 0.00 | 10 | -203.1 | |
| 20260505222751 | 53 | 0.0 | 0.0 | 0.00 | 0.00 | 0.00 | 10 | -203.0 | |
| 20260505221751 | 53 | 0.0 | 0.0 | 0.00 | 0.00 | 0.00 | 10 | -203.0 | |
| 20260505220751 | 54 | 0.0 | 0.0 | 0.00 | 0.00 | 0.00 | 10 | -203.2 | |
| 20260505215751 | 55 | 0.0 | 0.0 | 0.00 | 0.00 | 0.00 | 10 | -203.3 | |
| 20260505214751 | 55 | 0.0 | 0.0 | 0.00 | 0.00 | 0.00 | 10 | -203.3 | |
| 20260505213751 | 55 | 0.0 | 0.0 | 0.00 | 0.00 | 0.00 | 10 | -203.2 | |
| 20260505212751 | 55 | 0.0 | 0.0 | 0.00 | 0.00 | 0.00 | 10 | -203.3 | |
| 20260505211751 | 56 | 0.0 | 0.0 | 0.00 | 0.00 | 0.00 | 10 | -203.4 | |
| 20260505210751 | 57 | 0.0 | 0.0 | 0.00 | 0.00 | 0.00 | 10 | -203.5 | |
| 20260505205751 | 56 | 0.0 | 0.0 | 0.00 | 0.00 | 0.00 | 10 | -203.5 | |
| 20260505204751 | 56 | 0.0 | 0.0 | 0.00 | 0.00 | 0.00 | 10 | -203.5 | |
| 20260505203751 | 57 | 0.0 | 0.0 | 0.00 | 0.00 | 0.00 | 10 | -203.6 | |
| 20260505202751 | 58 | 0.0 | 0.0 | 0.00 | 0.00 | 0.00 | 10 | -203.7 | |
| 20260505201750 | 57 | 0.0 | 0.0 | 0.00 | 0.00 | 0.00 | 10 | -203.7 | |
| 20260505200750 | 57 | 0.0 | 0.0 | 0.00 | 0.00 | 0.00 | 10 | -203.6 | |
| 20260505195751 | 58 | 0.0 | 0.0 | 0.00 | 0.00 | 0.00 | 10 | -203.8 | |
| 20260505194750 | 58 | 0.0 | 0.0 | 0.00 | 0.00 | 0.00 | 10 | -203.8 | |
| 20260505193751 | 59 | 0.0 | 0.0 | 0.00 | 0.00 | 0.00 | 10 | -203.9 | |
| 20260505192751 | 58 | 0.0 | 0.0 | 0.00 | 0.00 | 0.00 | 10 | -203.8 | |
| 20260505191751 | 59 | 0.0 | 0.0 | 0.00 | 0.00 | 0.00 | 10 | -204.0 | |
| 20260505190750 | 60 | 0.0 | 0.0 | 0.00 | 0.00 | 0.00 | 10 | -204.0 | |
| 20260505185750 | 59 | 0.0 | 0.0 | 0.00 | 0.00 | 0.00 | 10 | -203.9 | |
| 20260505184750 | 59 | 0.0 | 0.0 | 0.00 | 0.00 | 0.00 | 10 | -204.0 | |
| 20260505183751 | 60 | 0.0 | 0.0 | 0.00 | 0.00 | 0.00 | 10 | -204.1 | |
| 20260505182750 | 60 | 0.0 | 0.0 | 0.00 | 0.00 | 0.00 | 10 | -204.1 | |
| 20260505181750 | 60 | 0.0 | 0.0 | 0.00 | 0.00 | 0.00 | 10 | -204.1 | |
| 20260505180750 | 60 | 0.0 | 0.0 | 0.00 | 0.00 | 0.00 | 10 | -204.1 | |
| 20260505175750 | 60 | 0.0 | 0.0 | 0.00 | 0.00 | 0.00 | 10 | -204.1 | |
| 20260505174750 | 61 | 0.0 | 0.0 | 0.00 | 0.00 | 0.00 | 10 | -204.2 | |
| 20260505173750 | 61 | 0.0 | 0.0 | 0.00 | 0.00 | 0.00 | 10 | -204.3 | |
| 20260505172750 | 61 | 0.0 | 0.0 | 0.00 | 0.00 | 0.00 | 10 | -204.2 | |
| 20260505171750 | 60 | 0.0 | 0.0 | 0.00 | 0.00 | 0.00 | 10 | -204.1 | |
| 20260505170750 | 61 | 0.0 | 0.0 | 0.00 | 0.00 | 0.00 | 10 | -204.2 | |
| 20260505165750 | 60 | 0.0 | 0.0 | 0.00 | 0.00 | 0.00 | 10 | -204.1 | |
| 20260505164750 | 60 | 0.0 | 0.0 | 0.00 | 0.00 | 0.00 | 10 | -204.1 | |
| 20260505163750 | 61 | 0.0 | 0.0 | 0.00 | 0.00 | 0.00 | 10 | -204.2 | |
| 20260505162750 | 62 | 0.0 | 0.0 | 0.00 | 0.00 | 0.00 | 10 | -204.3 | |
| 20260505161750 | 62 | 0.0 | 0.0 | 0.00 | 0.00 | 0.00 | 10 | -204.4 | |
| 20260505160750 | 64 | 0.0 | 0.0 | 0.00 | 0.00 | 0.00 | 10 | -204.8 | |
| 20260505152750 | 66 | 0.0 | 0.0 | 0.00 | 0.00 | 0.00 | 10 | -205.0 | |
| 20260505151750 | 67 | 0.0 | 0.0 | 0.00 | 0.00 | 0.00 | 10 | -205.2 | |
| 20260505150750 | 68 | 0.0 | 0.0 | 0.00 | 0.00 | 0.00 | 10 | -205.4 | |
| 20260505124749 | 77 | 0.0 | 0.0 | 0.00 | 0.00 | 0.00 | 98 | -206.7 |